STARLINK-11746 [DTC]

Last updated on Thu Jul 03 2025 00:02:06 GMT+0000 (Coordinated Universal Time)

1 64372U 25127C 25183.38764434 .00154896 00000+0 87467-3 0 9994 2 64372 43.0005 156.2156 0001645 262.7360 97.3323 15.77912254 4109
UTC large
Height (km)
Speed (km/s)
/
Latitude / Longitude
Inclination (degrees)
Orbital Period (minutes)
Azimuth
Elevation
Range (km)
Doppler Factor

Next 0 passes for location: London (51.5072 / 0.1276)

Sorry there are no passes over London.